User: anonymous   Login
Location: Unspecified
(0.0000°N, 0.0000°E)
Time: 12:45:56
(UTC+00:00)
Language:

IRS-1D - Orbit

View from above orbital plane
View from above orbital plane
View from above satellite
View from above satellite

Ground track
Ground track

The orbit data is extracted from the following two-line orbital elements,

1 24971U 97057A   18200.95382010  .00000016  00000-0  20561-4 0  9995
2 24971  98.4797 145.6011 0053915 120.3353 240.3179 14.33925246 88424
Epoch (UTC): 19 July 2018 22:53:30
Eccentricity: 0.0053915
inclination: 98.4797°
perigee height: 740 km
apogee height: 817 km
right ascension of ascending node: 145.6011°
argument of perigee: 120.3353°
revolutions per day: 14.33925246
mean anomaly at epoch: 240.3179°
orbit number at epoch: 8842

The dashed part of the orbit path shows where the satellite is in the earth's shadow,  

DLR